Orbital Elements at Epoch 2459200.5 (2020-Dec-17.0) TDB
Reference: JPL 12 (heliocentric ecliptic J2000)
Element | Value | Uncertainty (1-sigma) | Units |
e | .3082579713459396 | 9.0724e-07 | |
a | 1.537151889663099 | 4.3347e-07 | au |
q | 1.063312566504975 | 1.0954e-06 | au |
i | 15.65561052911727 | 8.8592e-05 | deg |
node | 193.3515904578939 | 2.6947e-05 | deg |
peri | 263.7696374847962 | 7.8752e-05 | deg |
M | 1.463005878774889 | 8.0278e-05 | deg |
tp | 2459197.671102757722 (2020-Dec-14.17110276) | 0.00015441 | TDB |
period | 696.10315446777 1.91 | 0.00029445 8.062e-07 | d yr |
n | .5171647300970078 | 2.1876e-07 | deg/d |
Q | 2.010991212821224 | 5.671e-07 | au |
|
| | Orbit Determination Parameters
Additional Information
|